This is the latest recevied weather packets stored in our database for station/object N9NDF. If no packets are shown the sender has not sent any weather packets the latest 10 day(s).
| Time | Temp. | Humidity | Pressure | Rain* | Wind** | Luminosity | Snow |
|---|---|---|---|---|---|---|---|
| 1778188429 | 17.22° C | 64% | 989.6 hPa | 0 mm | - | 188 W/m² | - |
| 1778188370 | 17.22° C | 65% | 989.7 hPa | 0 mm | - | 144 W/m² | - |
| 1778188310 | 17.22° C | 65% | 989.7 hPa | 0 mm | - | 151 W/m² | - |
| 1778188250 | 17.78° C | 63% | 989.7 hPa | 0 mm | - | 169 W/m² | - |
| 1778188190 | 17.78° C | 62% | 989.7 hPa | 0 mm | - | 174 W/m² | - |
| 1778188130 | 17.78° C | 61% | 989.7 hPa | 0.25 mm | - | 167 W/m² | - |
| 1778188083 | 17.78° C | 59% | 989.7 hPa | 0.51 mm | - | 144 W/m² | - |
| 1778188009 | 17.78° C | 60% | 989.7 hPa | 1.02 mm | - | 541 W/m² | - |
| 1778187949 | 17.78° C | 59% | 989.7 hPa | 1.78 mm | - | 640 W/m² | - |
| 1778187890 | 17.78° C | 59% | 989.6 hPa | 2.03 mm | - | 616 W/m² | - |
| 1778187829 | 17.78° C | 59% | 989.6 hPa | 2.54 mm | - | 638 W/m² | - |
| 1778187783 | 17.78° C | 59% | 989.6 hPa | 2.79 mm | - | 640 W/m² | - |
| 1778187710 | 17.78° C | 60% | 989.6 hPa | 3.3 mm | - | 642 W/m² | - |
| 1778187649 | 17.78° C | 62% | 989.7 hPa | 3.56 mm | - | 643 W/m² | - |
| 1778187590 | 17.22° C | 62% | 989.7 hPa | 3.56 mm | - | 643 W/m² | - |
| 1778187529 | 17.22° C | 63% | 989.8 hPa | 3.56 mm | - | 646 W/m² | - |
| 1778187470 | 17.22° C | 63% | 989.8 hPa | 3.56 mm | - | 654 W/m² | - |
| 1778187410 | 17.22° C | 63% | 989.8 hPa | 3.56 mm | - | 661 W/m² | - |
| 1778187349 | 17.22° C | 64% | 989.8 hPa | 3.56 mm | - | 676 W/m² | - |
| 1778187290 | 16.67° C | 65% | 989.8 hPa | 3.56 mm | - | 697 W/m² | - |
| 1778187229 | 16.67° C | 65% | 989.9 hPa | 3.56 mm | - | 714 W/m² | - |
| 1778187170 | 16.67° C | 68% | 989.9 hPa | 3.56 mm | - | 734 W/m² | - |
| 1778187109 | 16.67° C | 67% | 989.9 hPa | 3.56 mm | - | 689 W/m² | - |
| 1778187050 | 16.11° C | 67% | 989.9 hPa | 3.56 mm | - | 424 W/m² | - |
| 1778186990 | 16.11° C | 66% | 990 hPa | 3.56 mm | - | 720 W/m² | - |
* Rain latest hour (hover to see other rain measurements)
** Current wind speed in m/s (hover to see current wind gust speed)